Licenciado Gustavo Díaz Ordaz International Airport
MMPR : now visible

Airfield :











YOU CAN JOIN US ON...

 
LOGIN :

Register | Disclaimer

   EN    FR    IT 

 









Legend :    VFR   Marginal VFR   IFR   Intensive IFR   Very Intensive IFR
Visi :
Ceiling :
>= 8 km
>= 3000ft
5 to 8 km
1000 to 3000 ft
1500m to 5 km
500 to 1000 ft
800 to 1500m
200 to 500 ft
< 800m
< 200 ft
Symbols :   Thunderstorms  Fog  Heavy snow  Heavy precipitations  Wind > 20 kt







- Airport Elevation : 23 ft
- IATA code : PVR


MMPR - Licenciado Gustavo Díaz Ordaz International

CURRENT METAR :
  • 162145Z 24010KT 15SM SCT025CB 34/26 A2980 RMK 8/300 ACCS

EXPIRED METARs :
  • 162050Z 23010KT 15SM SCT025TCU 34/26 A2981 RMK SLP095 57017 953 8/200 AC
  • 161948Z 23010KT 15SM SCT025 33/26 A2983 RMK 8/100 TCU NE AND SE

TAF TAF MMPR
Valid from the 16 at 18:00 until the 18 at 00:00 UTC


161610Z 1618/1724 23010KT P6SM SCT020 BKN250 TX34/1620Z TN26/1712Z
TEMPO 1621/1701 6SM -TSRA BKN020CB
FM170300 33005KT 6SM HZ SCT015 BKN070
FM171800 23010KT P6SM SCT020 BKN100
No reported NOTAMs for that airfield.



MET'MAP, your aeronautical weather chart ! - Copyright ORBIFLY December 2007 - Disclaimer

ORBIFLY MET'MAP TEAM :

Programming & Development : Alexandra Zaïnal
Concept & Development : Baudouin d'Aumeries
Co-Development & Prog : Marc-Olivier Méhu
Technical & hardware support : Manuel Goepfert

Contact : metmap@orbifly.com




SOURCES & CREDITS :

   NOAA       Earth
Advisory